| time (UTC) | temp F | wind direction | speed MPH | gust MPH | rain 1hr in | rain 24hr in | rain mn in | humidity % | barometer mb |
| 20260510103612 | 53 | 318 | 2.0 | 2.0 | 0.00 | 0.00 | 0.00 | 75 | 1021.4 |
| 20260510102604 | 52 | 304 | 2.0 | 3.0 | 0.00 | 0.00 | 0.00 | 76 | 1021.7 |
| 20260510101558 | 53 | 79 | 1.0 | 2.0 | 0.00 | 0.00 | 0.00 | 75 | 1021.6 |
| 20260510100549 | 53 | 346 | 1.0 | 2.0 | 0.00 | 0.00 | 0.00 | 75 | 1021.8 |
| 20260510095534 | 53 | 354 | 1.0 | 1.0 | 0.00 | 0.00 | 0.00 | 75 | 1021.6 |
| 20260510094532 | 53 | 339 | 4.0 | 6.0 | 0.00 | 0.00 | 0.00 | 76 | 1021.8 |
| 20260510093521 | 53 | 285 | 3.0 | 6.0 | 0.00 | 0.00 | 0.00 | 75 | 1021.6 |
| 20260510092516 | 53 | 303 | 0.0 | 1.0 | 0.00 | 0.00 | 0.00 | 76 | 1021.9 |
| 20260510091508 | 53 | 330 | 7.0 | 9.0 | 0.00 | 0.00 | 0.00 | 75 | 1021.8 |
| 20260510090500 | 53 | 22 | 3.0 | 4.0 | 0.00 | 0.00 | 0.00 | 76 | 1021.8 |
| 20260510085446 | 53 | 111 | 3.0 | 6.0 | 0.00 | 0.00 | 0.00 | 77 | 1022.0 |
| 20260510084444 | 53 | 264 | 3.0 | 6.0 | 0.00 | 0.00 | 0.00 | 78 | 1022.1 |
| 20260510083434 | 52 | 222 | 1.0 | 2.0 | 0.00 | 0.00 | 0.00 | 80 | 1022.1 |
| 20260510082429 | 52 | 11 | 3.0 | 4.0 | 0.00 | 0.00 | 0.00 | 80 | 1022.0 |
| 20260510081421 | 52 | 133 | 0.0 | 1.0 | 0.00 | 0.00 | 0.00 | 81 | 1021.8 |
| 20260510080412 | 52 | 133 | 0.0 | 1.0 | 0.00 | 0.00 | 0.00 | 82 | 1021.9 |
| 20260510075404 | 51 | 144 | 1.0 | 1.0 | 0.00 | 0.00 | 0.00 | 82 | 1021.9 |
| 20260510074356 | 51 | 18 | 3.0 | 7.0 | 0.00 | 0.00 | 0.00 | 83 | 1022.0 |
| 20260510073348 | 51 | 356 | 2.0 | 3.0 | 0.00 | 0.00 | 0.00 | 84 | 1022.2 |
| 20260510072400 | 50 | 31 | 2.0 | 3.0 | 0.00 | 0.00 | 0.00 | 84 | 1021.9 |
| 20260510071337 | 50 | 270 | 1.0 | 1.0 | 0.00 | 0.00 | 0.00 | 85 | 1021.9 |
| 20260510070336 | 50 | 315 | 3.0 | 4.0 | 0.00 | 0.00 | 0.00 | 86 | 1022.0 |
| 20260510065333 | 50 | 14 | 4.0 | 4.0 | 0.00 | 0.00 | 0.00 | 87 | 1021.8 |
| 20260510064321 | 49 | 324 | 1.0 | 2.0 | 0.00 | 0.00 | 0.00 | 89 | 1021.9 |
| 20260510063316 | 49 | 318 | 1.0 | 1.0 | 0.00 | 0.00 | 0.00 | 90 | 1021.6 |
| 20260510062329 | 49 | 67 | 1.0 | 1.0 | 0.00 | 0.00 | 0.00 | 91 | 1021.9 |
| 20260510061251 | 48 | 15 | 3.0 | 4.0 | 0.00 | 0.00 | 0.00 | 92 | 1022.1 |
| 20260510060250 | 48 | 50 | 6.0 | 9.0 | 0.00 | 0.00 | 0.00 | 92 | 1021.9 |
| 20260510055235 | 48 | 355 | 2.0 | 2.0 | 0.00 | 0.00 | 0.00 | 93 | 1021.6 |
| 20260510054234 | 47 | 57 | 2.0 | 2.0 | 0.00 | 0.00 | 0.00 | 93 | 1021.7 |
| 20260510053229 | 47 | 8 | 2.0 | 3.0 | 0.00 | 0.00 | 0.00 | 94 | 1021.6 |
| 20260510052148 | 47 | 0 | 1.0 | 1.0 | 0.00 | 0.00 | 0.00 | 94 | 1021.6 |
| 20260510051133 | 47 | 21 | 1.0 | 2.0 | 0.00 | 0.00 | 0.00 | 94 | 1021.8 |
| 20260510050130 | 46 | 346 | 1.0 | 1.0 | 0.00 | 0.00 | 0.00 | 94 | 1021.6 |
| 20260510045124 | 46 | 26 | 2.0 | 2.0 | 0.00 | 0.00 | 0.00 | 94 | 1021.8 |
| 20260510044117 | 46 | 336 | 4.0 | 4.0 | 0.00 | 0.00 | 0.00 | 93 | 1021.6 |
| 20260510043108 | 46 | 329 | 0.0 | 1.0 | 0.00 | 0.00 | 0.00 | 93 | 1021.4 |
| 20260510042100 | 47 | 343 | 3.0 | 4.0 | 0.00 | 0.00 | 0.00 | 93 | 1021.9 |
| 20260510041045 | 47 | 325 | 3.0 | 3.0 | 0.00 | 0.00 | 0.00 | 93 | 1021.8 |
| 20260510040044 | 47 | 25 | 0.0 | 1.0 | 0.00 | 0.00 | 0.00 | 92 | 1021.8 |
| 20260510035038 | 47 | 1 | 2.0 | 3.0 | 0.00 | 0.00 | 0.00 | 92 | 1021.8 |
| 20260510034056 | 47 | 328 | 1.0 | 2.0 | 0.00 | 0.00 | 0.00 | 92 | 1021.8 |
| 20260510033054 | 47 | 351 | 4.0 | 4.0 | 0.00 | 0.00 | 0.00 | 92 | 1022.1 |
| 20260510032029 | 48 | 10 | 3.0 | 4.0 | 0.00 | 0.00 | 0.00 | 92 | 1022.0 |
| 20260510031025 | 48 | 301 | 1.0 | 1.0 | 0.00 | 0.00 | 0.00 | 92 | 1022.2 |
| 20260510030023 | 48 | 335 | 1.0 | 2.0 | 0.00 | 0.00 | 0.00 | 92 | 1022.0 |
| 20260510025101 | 48 | 14 | 2.0 | 2.0 | 0.00 | 0.00 | 0.00 | 92 | 1022.1 |
| 20260510024012 | 48 | 321 | 1.0 | 3.0 | 0.00 | 0.00 | 0.00 | 92 | 1022.1 |
| 20260510022520 | 48 | 8 | 2.0 | 2.0 | 0.00 | 0.00 | 0.00 | 93 | 1022.1 |
| 20260510021445 | 48 | 15 | 1.0 | 1.0 | 0.00 | 0.00 | 0.00 | 93 | 1022.2 |
| 20260510020444 | 48 | 356 | 1.0 | 2.0 | 0.00 | 0.00 | 0.00 | 93 | 1022.3 |
| 20260510015453 | 48 | 340 | 2.0 | 2.0 | 0.00 | 0.00 | 0.00 | 93 | 1022.3 |
| 20260510014429 | 48 | 265 | 0.0 | 1.0 | 0.00 | 0.00 | 0.00 | 93 | 1022.2 |
| 20260510013440 | 48 | 290 | 1.0 | 2.0 | 0.00 | 0.00 | 0.00 | 93 | 1022.0 |
| 20260510012413 | 48 | 358 | 0.0 | 1.0 | 0.00 | 0.00 | 0.00 | 93 | 1021.9 |
| 20260510011424 | 48 | 358 | 3.0 | 4.0 | 0.00 | 0.00 | 0.00 | 93 | 1021.8 |
| 20260510010356 | 47 | 34 | 1.0 | 1.0 | 0.00 | 0.00 | 0.00 | 92 | 1022.2 |
| 20260510005349 | 47 | 341 | 2.0 | 2.0 | 0.00 | 0.00 | 0.00 | 92 | 1022.3 |
| 20260510004354 | 47 | 354 | 2.0 | 2.0 | 0.00 | 0.00 | 0.00 | 91 | 1022.3 |
| 20260510003333 | 48 | 356 | 1.0 | 1.0 | 0.00 | 0.00 | 0.00 | 90 | 1022.3 |
| 20260510002321 | 48 | 354 | 2.0 | 3.0 | 0.00 | 0.00 | 0.00 | 89 | 1022.4 |
| 20260510001336 | 48 | 39 | 1.0 | 2.0 | 0.00 | 0.00 | 0.00 | 87 | 1022.4 |
| 20260510000311 | 48 | 323 | 2.0 | 3.0 | 0.00 | 0.00 | 0.00 | 86 | 1022.4 |
| 20260509235300 | 49 | 343 | 2.0 | 3.0 | 0.00 | 0.00 | 0.00 | 86 | 1022.4 |
| 20260509234352 | 49 | 27 | 1.0 | 2.0 | 0.00 | 0.00 | 0.00 | 85 | 1022.6 |
| 20260509233239 | 49 | 14 | 2.0 | 3.0 | 0.00 | 0.00 | 0.00 | 84 | 1022.4 |
| 20260509232237 | 49 | 10 | 1.0 | 1.0 | 0.00 | 0.00 | 0.00 | 84 | 1022.3 |
| 20260509231235 | 49 | 1 | 1.0 | 1.0 | 0.00 | 0.00 | 0.00 | 83 | 1022.3 |
| 20260509230233 | 49 | 14 | 0.0 | 1.0 | 0.00 | 0.00 | 0.00 | 82 | 1022.2 |
| 20260509225248 | 48 | 21 | 0.0 | 1.0 | 0.00 | 0.00 | 0.00 | 81 | 1022.3 |
| 20260509224220 | 48 | 0.0 | 0.0 | 0.00 | 0.00 | 0.00 | 80 | 1022.5 | |
| 20260509223212 | 50 | 0.0 | 0.0 | 0.00 | 0.00 | 0.00 | 78 | 1022.5 | |
| 20260509222204 | 50 | 0.0 | 0.0 | 0.00 | 0.00 | 0.00 | 76 | 1022.5 | |
| 20260509221156 | 51 | 312 | 0.0 | 1.0 | 0.00 | 0.00 | 0.00 | 76 | 1022.2 |
| 20260509220148 | 51 | 0.0 | 0.0 | 0.00 | 0.00 | 0.00 | 74 | 1022.0 | |
| 20260509215135 | 51 | 344 | 0.0 | 1.0 | 0.00 | 0.00 | 0.00 | 73 | 1021.8 |
| 20260509214132 | 50 | 1 | 1.0 | 1.0 | 0.00 | 0.00 | 0.00 | 71 | 1021.8 |
| 20260509213121 | 52 | 0.0 | 0.0 | 0.00 | 0.00 | 0.00 | 68 | 1022.0 | |
| 20260509212116 | 52 | 344 | 0.0 | 1.0 | 0.00 | 0.00 | 0.00 | 68 | 1021.9 |
| 20260509211109 | 52 | 0.0 | 0.0 | 0.00 | 0.00 | 0.00 | 66 | 1022.0 | |
| 20260509210101 | 52 | 90 | 1.0 | 1.0 | 0.00 | 0.00 | 0.00 | 65 | 1021.8 |
| 20260509205049 | 52 | 0.0 | 0.0 | 0.00 | 0.00 | 0.00 | 63 | 1021.7 | |
| 20260509204035 | 52 | 338 | 1.0 | 1.0 | 0.00 | 0.00 | 0.00 | 63 | 1021.8 |
| 20260509203034 | 53 | 0.0 | 0.0 | 0.00 | 0.00 | 0.00 | 62 | 1021.4 | |
| 20260509202028 | 53 | 0.0 | 0.0 | 0.00 | 0.00 | 0.00 | 60 | 1021.4 | |
| 20260509201020 | 55 | 0.0 | 0.0 | 0.00 | 0.00 | 0.00 | 58 | 1021.3 | |
| 20260509200053 | 55 | 47 | 0.0 | 1.0 | 0.00 | 0.00 | 0.00 | 58 | 1021.4 |
| 20260509194500 | 56 | 0.0 | 0.0 | 0.00 | 0.00 | 0.00 | 56 | 1021.5 | |
| 20260509193445 | 57 | 0.0 | 0.0 | 0.00 | 0.00 | 0.00 | 56 | 1021.1 | |
| 20260509192443 | 57 | 0.0 | 0.0 | 0.00 | 0.00 | 0.00 | 58 | 1021.4 | |
| 20260509191441 | 59 | 0.0 | 0.0 | 0.00 | 0.00 | 0.00 | 57 | 1021.1 | |
| 20260509190500 | 59 | 0.0 | 0.0 | 0.00 | 0.00 | 0.00 | 57 | 1021.1 | |
| 20260509185438 | 60 | 0.0 | 0.0 | 0.00 | 0.00 | 0.00 | 55 | 1021.0 | |
| 20260509184436 | 60 | 155 | 1.0 | 1.0 | 0.00 | 0.00 | 0.00 | 54 | 1020.9 |
| 20260509183434 | 61 | 121 | 2.0 | 3.0 | 0.00 | 0.00 | 0.00 | 52 | 1020.9 |
| 20260509182428 | 62 | 181 | 0.0 | 1.0 | 0.00 | 0.00 | 0.00 | 50 | 1020.7 |
| 20260509181414 | 64 | 310 | 1.0 | 1.0 | 0.00 | 0.00 | 0.00 | 47 | 1020.8 |
| 20260509180433 | 65 | 0.0 | 0.0 | 0.00 | 0.00 | 0.00 | 46 | 1020.4 | |
| 20260509175343 | 62 | 152 | 1.0 | 1.0 | 0.00 | 0.00 | 0.00 | 48 | 1020.5 |
| 20260509174340 | 61 | 170 | 1.0 | 2.0 | 0.00 | 0.00 | 0.00 | 48 | 1020.7 |
| 20260509173304 | 62 | 114 | 1.0 | 1.0 | 0.00 | 0.00 | 0.00 | 47 | 1020.5 |
| 20260509172236 | 64 | 140 | 3.0 | 4.0 | 0.00 | 0.00 | 0.00 | 45 | 1020.8 |
| 20260509171155 | 64 | 116 | 2.0 | 2.0 | 0.00 | 0.00 | 0.00 | 44 | 1020.8 |
| 20260509170034 | 65 | 138 | 1.0 | 1.0 | 0.00 | 0.00 | 0.00 | 43 | 1020.7 |
| 20260509165020 | 64 | 357 | 0.0 | 1.0 | 0.00 | 0.00 | 0.00 | 44 | 1020.9 |
| 20260509163940 | 66 | 123 | 1.0 | 2.0 | 0.00 | 0.00 | 0.00 | 44 | 1020.7 |
| 20260509162934 | 67 | 308 | 1.0 | 2.0 | 0.00 | 0.00 | 0.00 | 44 | 1021.0 |
| 20260509160734 | 0 | 0.0 | 0.0 | 0.00 | 0.00 | 0.00 | 1021.0 | ||
| 20260509155634 | 0 | 0.0 | 0.0 | 0.00 | 0.00 | 0.00 | 1021.1 | ||
| 20260509154454 | 71 | 10 | 2.0 | 4.0 | 0.00 | 0.00 | 0.00 | 38 | 1021.1 |
| 20260509153355 | 0 | 0.0 | 0.0 | 0.00 | 0.00 | 0.00 | 1020.8 | ||
| 20260509152255 | 70 | 140 | 1.0 | 1.0 | 0.00 | 0.00 | 0.00 | 40 | 1020.8 |
| 20260509151035 | 71 | 184 | 2.0 | 3.0 | 0.00 | 0.00 | 0.00 | 39 | 1020.6 |
| 20260509150034 | 72 | 236 | 2.0 | 3.0 | 0.00 | 0.00 | 0.00 | 38 | 1020.5 |
| 20260509145041 | 72 | 133 | 2.0 | 6.0 | 0.00 | 0.00 | 0.00 | 40 | 1020.4 |
| 20260509144517 | 72 | 29 | 1.0 | 1.0 | 0.00 | 0.00 | 0.00 | 37 | 1020.3 |
| 20260509143452 | 71 | 68 | 2.0 | 2.0 | 0.00 | 0.00 | 0.00 | 38 | 1020.2 |
| 20260509142434 | 72 | 174 | 2.0 | 3.0 | 0.00 | 0.00 | 0.00 | 37 | 1020.6 |
| 20260509141354 | 72 | 84 | 1.0 | 1.0 | 0.00 | 0.00 | 0.00 | 38 | 1020.5 |
| 20260509140253 | 71 | 0.0 | 0.0 | 0.00 | 0.00 | 0.00 | 41 | 1020.5 | |
| 20260509135134 | 71 | 54 | 0.0 | 1.0 | 0.00 | 0.00 | 0.00 | 39 | 1020.7 |
| 20260509134049 | 71 | 94 | 1.0 | 2.0 | 0.00 | 0.00 | 0.00 | 38 | 1020.8 |
| 20260509133534 | 71 | 94 | 1.0 | 2.0 | 0.00 | 0.00 | 0.00 | 38 | 1020.7 |
| 20260509132336 | 72 | 140 | 2.0 | 3.0 | 0.00 | 0.00 | 0.00 | 38 | 1020.7 |
| 20260509131317 | 72 | 16 | 1.0 | 1.0 | 0.00 | 0.00 | 0.00 | 38 | 1020.9 |
| 20260509130253 | 72 | 358 | 0.0 | 1.0 | 0.00 | 0.00 | 0.00 | 41 | 1021.0 |
| 20260509125248 | 72 | 141 | 1.0 | 2.0 | 0.00 | 0.00 | 0.00 | 41 | 1021.1 |
| 20260509124236 | 71 | 332 | 0.0 | 1.0 | 0.00 | 0.00 | 0.00 | 40 | 1021.2 |
| 20260509123226 | 69 | 0.0 | 0.0 | 0.00 | 0.00 | 0.00 | 41 | 1021.1 | |
| 20260509122149 | 70 | 113 | 1.0 | 2.0 | 0.00 | 0.00 | 0.00 | 43 | 1021.2 |
| 20260509121142 | 71 | 49 | 0.0 | 1.0 | 0.00 | 0.00 | 0.00 | 43 | 1021.2 |
| 20260509120141 | 69 | 96 | 0.0 | 1.0 | 0.00 | 0.00 | 0.00 | 42 | 1021.6 |
| 20260509115142 | 70 | 0.0 | 0.0 | 0.00 | 0.00 | 0.00 | 45 | 1021.6 | |
| 20260509114140 | 70 | 22 | 1.0 | 2.0 | 0.00 | 0.00 | 0.00 | 42 | 1021.7 |
| 20260509113135 | 71 | 317 | 1.0 | 1.0 | 0.00 | 0.00 | 0.00 | 41 | 1021.8 |
| 20260509112132 | 70 | 148 | 3.0 | 3.0 | 0.00 | 0.00 | 0.00 | 43 | 1021.8 |
| 20260509111124 | 71 | 289 | 2.0 | 3.0 | 0.00 | 0.00 | 0.00 | 42 | 1021.9 |
| 20260509110117 | 70 | 185 | 1.0 | 1.0 | 0.00 | 0.00 | 0.00 | 44 | 1021.9 |
| 20260509105125 | 70 | 0 | 2.0 | 4.0 | 0.00 | 0.00 | 0.00 | 44 | 1022.2 |